sat.trackr.live / text

‹ back to catalog

STARLINK-3628

NORAD 51783 · 2022-017R

PAYLOAD ACTIVE UNKNOWN

§ Identity

Operator
Country
US
Launch date
2022-02-25
Launch site
AFWTR
Launch vehicle
Mass (kg)
RCS (m²)

Purposes: comms

External: N2YO · Heavens-Above · Gunter

§ Orbital elements

Epoch: 2026-05-24T21:26:44.340000Z

Period
95.44 min
Inclination
53.2144°
Eccentricity
0.0001752
Mean motion
15.08845732 rev/d
Perigee alt
538.5 km
Apogee alt
540.9 km
Semi-major
6,917.9 km
B*
-1.2451e-5
RAAN
357.0778°
Arg perigee
94.3769°
Mean anomaly
265.7424°
Rev number
23,392

§ Raw data

STARLINK-36281 51783U 22017R   26144.89356875 -.00000486  00000+0 -12451-4 0  99902 51783  53.2144 357.0778 0001752  94.3769 265.7424 15.08845732233927

JSON: /api/v1/satellites/51783 · /tle

For live sub-satellite position, see the globe view (requires WebGL).

§ Visibility from observer

Set your observer location to see the next 7 days of passes ≥ 10°. The values pass through the URL so the page stays shareable.

No JS? Fill the form by hand. The geolocation button needs JavaScript.